Вернуться в каталог

TITAN 3C TRANSTAGE R/B

АктивенGEO
NORAD 13089·ROCKET BODY·🇺🇸 United States

Запущен Mar 6, 1982 с Cape Canaveral Space Force Station

Loading…

TLE

СвежийSource: Space-Track

Эпоха: Sep 14, 2026, 05:57 UTC

1 13089U 82019B   26257.24799750 -.00000022  00000-0  00000-0 0  9991
2 13089   7.3260 300.9095 0011131 155.3292 204.6319  1.01258735 26534

Отслеживайте TITAN 3C TRANSTAGE R/B в реальном времени с AllMySat

Download on the App Store